Weather in Gapkin

Russia / Rostov Oblast     47°43′03″N   41°25′07″E
В апреле 2022 года жителям России запретили посещать сайт meteo.paraplan.net по решению Генеральной прокуратуры. Аудитория сайта уменьшилась в 10 раз. Владельцы сайта не видят смысла в поддержке погодного сервера в таких условиях. Сайт будет закрыт в октябре.
temp.,
°C
wind,
m/s
gust,
m/s
humid.,
%
clouds,
%
prec.,
mm/h
press.,
hPa
HPBL,
m
25 september, sun
sun2500:00+10w49887 1.7 1014377
03:00+9wsw511865 2.4 1014332
06:00+8wsw513877 0.0 1015389
09:00+12wsw8126417 0.0 10161070
12:00+16w10144532 0.0 10161968
15:00+18w10143622 0.0 10162406
18:00+15wsw712415 0.0 1016452
21:00+13wsw715615 0.0 1018541
26 september, mon
mon2600:00+12wsw51268100 0.0 1018321
03:00+10wsw497994 0.0 1019189
06:00+11sw3675100 0.0 1019125
09:00+15wsw4767100 0.0 1019452
12:00+16sw4764100 0.1 1018785
15:00+19wsw5755100 0.6 10181456
18:00+18sw365693 0.1 1018122
21:00+14s336697 0.1 101825
27 september, tue
tue2700:00+13sse226599 0.0 101714
03:00+13se3366100 0.0 101644
06:00+12se3463100 0.0 101568
09:00+16sse3553100 0.0 1014268
12:00+20sse5656100 0.0 1012999
15:00+23s453994 0.0 10111505
18:00+19se3352100 0.0 101032
21:00+17se3461100 0.0 101050
28 september, wed
wed2800:00+17se3463100 0.0 100851
03:00+16ese3571100 0.0 100889
06:00+15ese4879100 0.0 1007152
09:00+20se5866100 0.0 1006425
12:00+25sse7845100 0.0 10051010
15:00+24sse5648100 0.0 1004572
18:00+22ssw41045100 0.0 1005269
21:00+20sw5125052 0.0 1006533
29 september, thu
thu2900:00+16wsw39821 0.0 1007213
03:00+15sw36910 0.1 1008125
06:00+15sw36930 0.1 1008129
09:00+19wsw46760 0.2 1009490
12:00+24w56470 0.0 10091558
15:00+23nw664895 0.1 10091433
18:00+20nw485141 0.1 1012169
21:00+17nw4755100 0.1 1013134